Location: Zagreb
(45.8000°N, 16.0000°E)
Time: 23:48:38
(UTC+02:00)

Envisat - Pass Details

Date: 23 April 2024
Orbit: 762 x 764 km, 98.3° (Epoch: 27 May)

Event Time Altitude Azimuth Distance (km) Brightness Sun altitude
Rises 04:03:42 0° 17° (NNE) 3,239 7.2 -17.7°
Reaches altitude 10° 04:06:04 10° 21° (NNE) 2,308 6.4 -17.4°
Maximum altitude 04:11:05 59° 101° (E) 881 3.5 -16.7°
Enters shadow 04:15:54 11° 180° (S) 2,230 5.0 -16.1°
